Regional Weather Roundup
Issued by NWS Sioux Falls, SD

Home | Current Version | Previous Version | Text Only | Print | Product List | Glossary On
Versions: 1 2 3 4 5 6 7 8 9 10 11 12 13 14 15 16 17 18 19 20 21 22 23 24 25 26 27 28 29 30 31 32 33 34 35 36 37 38 39 40 41 42 43 44 45 46 47 48 49 50
000
ASUS43 KFSD 191702
RWRFSD

WEATHER ROUNDUP FOR SE SOUTH DAKOTA/SW MINNESOTA/NW IOWA
NATIONAL WEATHER SERVICE SIOUX FALLS SD
1100 AM CST THU JAN 19 2017

NOTE: "FAIR" INDICATES FEW OR NO CLOUDS BELOW 12,000 FEET WITH NO
SIGNIFICANT WEATHER AND OR OBSTRUCTIONS TO VISIBILITY.


SDZ038>040-050-052>070-191800-
SOUTHEAST SOUTH DAKOTA

CITY           SKY/WX    TMP DP  RH WIND       PRES   REMARKS
BROOKINGS      SUNNY     37  33  85 S20       29.65F
CHAMBERLAIN    PTSUNNY   41  37  87 S10       29.59S
HURON          FOG       33  33 100 S15G22    29.61S VSB 3/4 WCI  23
MADISON        PTSUNNY   32  32 100 S16         N/A  WCI  21
MITCHELL       FOG       35  35 100 S18G26    29.65F VSB 1/4 WCI  24
SIOUX FALLS    FOG       36  36 100 S10       29.71S VSB 1/8
WINNER         FAIR      40  32  73 S16G23    29.57R
YANKTON        CLOUDY    37  34  87 SE7       29.69F
$$

MNZ071-072-080-081-089-090-097-098-191800-
SOUTHWEST MINNESOTA

CITY           SKY/WX    TMP DP  RH WIND       PRES   REMARKS
FAIRMONT       CLOUDY    34  33  96 S12       29.79F FOG     WCI  25
JACKSON        PTSUNNY   34  32  93 S14       29.76F FOG     WCI  24
LUVERNE        CLOUDY    36  34  93 S12       29.74R FOG
MARSHALL       SUNNY     41  36  82 S14       29.71R
MONTEVIDEO     SUNNY     41  36  81 S8        29.70F
PIPESTONE      PTSUNNY   37  36  93 S9        29.69S FOG
REDWOOD FALLS  SUNNY     36  32  85 SE15      29.74S FOG
TRACY          SUNNY     41  37  84 S14G20    29.72S
WINDOM         PTSUNNY   36  34  93 S8        29.76S FOG
WORTHINGTON    FOG       34  33  96 S12       29.75S VSB 1   WCI  25
$$

IAZ001>003-012>014-020>022-031-032-NEZ013-014-SDZ071-191800-
NORTHWEST IOWA

CITY           SKY/WX    TMP DP  RH WIND       PRES   REMARKS
CHEROKEE       CLOUDY    37  37  99 S8        29.77S FOG
DENISON        CLOUDY    39  37  93 S7        29.77S
ESTHERVILLE      N/A     33  33 100 S13       29.78S WCI  24
LE MARS        CLOUDY    37  36  93 S15       29.76S FOG
ORANGE CITY    CLOUDY    37  36  93 S10       29.75S FOG
SHELDON        CLOUDY    36  36 100 SE13      29.74S FOG
SIOUX CITY     FOG       37  35  92 SE10      29.76F VSB 1/2
SPENCER        CLOUDY    35  35 100 S8        29.78S FOG     WCI  29
STORM LAKE     FOG       34  34 100 SE6       29.77F VSB<1/4 WCI  29
$$

ABBREVIATIONS USED IN REMARKS
   TC - TEMPERATURE IN CELSIUS
  WCI - WIND CHILL INDEX
   HX - HEAT INDEX
  VSB - VISIBILITY





USA.gov is the U.S. government's official web portal to all federal, state and local government web resources and services.